Weather in IC Skolkovo

Russia / Moscow Oblast     55°41′30″N   37°20′55″E
temp.,
°C
wind,
m/s
gust,
m/s
humid.,
%
clouds,
%
prec.,
mm/h
press.,
hPa
HPBL,
m
5 august, thu
thu500:00+16w127286 0.2 101738
03:00+16sw117371 0.3 101763
06:00+16s0174100 0.0 101743
09:00+20sse2455100 0.0 1016604
12:00+23sse4543100 0.0 10161537
15:00+17w3581100 1.0 1016316
18:00+16ene2492100 4.1 1015271
21:00+16ese3792100 4.4 1014340
6 august, fri
fri600:00+15ese399367 0.5 1013309
03:00+14se269480 0.8 1012176
06:00+15ssw2695100 0.6 1012219
09:00+17s2594100 0.7 1012319
12:00+16se1599100 6.0 1012321
15:00+17ese2498100 12.9 1012199
18:00+18e489297 0.1 1011330
21:00+17ene41189100 0.1 1010424
7 august, sat
sat700:00+16e3889100 0.1 1010345
03:00+15e389598 0.2 1009278
06:00+16e3897100 0.8 1009246
09:00+20se3682100 0.8 1009342
12:00+25sse3766100 0.0 1009592
15:00+27sse6852100 0.0 1009923
18:00+23sse31367100 0.1 1009732
21:00+21sse3977100 0.2 1009220
8 august, sun
sun800:00+19sw2788100 0.4 1010182
03:00+18w2598100 3.7 1011187
06:00+17w259596 0.9 1012272
09:00+18w357788 1.1 1013456
12:00+23w35490 0.0 10131329
15:00+25w46420 0.0 10131702
18:00+23wnw465259 0.0 10141439
21:00+19wsw23685 0.0 101585
9 august, mon
mon900:00+17wsw237682 0.0 101680
03:00+16wsw247955 0.0 1016105
06:00+16w247789 0.0 1016109
09:00+21wsw23595 0.0 1016450
12:00+25wnw35485 0.0 10161554
15:00+27nw34385 0.0 10151734
18:00+26nw33425 0.0 10141311
21:00+22nw115853 0.0 101519